This is the latest recevied weather packets stored in our database for station/object EW8324. If no packets are shown the sender has not sent any weather packets the latest 10 day(s).
| Time | Temp. | Humidity | Pressure | Rain* | Wind** | Luminosity | Snow |
|---|---|---|---|---|---|---|---|
| 1777761539 | 24.44° C | 46% | 1013.7 hPa | 0.76 mm | - | 308 W/m² | - |
| 1777761239 | 23.89° C | 45% | 1013.7 hPa | 0.76 mm | - | 368 W/m² | - |
| 1777760939 | 24.44° C | 46% | 1013.8 hPa | 0.76 mm | - | 397 W/m² | - |
| 1777760636 | 24.44° C | 44% | 1013.8 hPa | 0.76 mm | - | 387 W/m² | - |
| 1777760337 | 24.44° C | 45% | 1013.9 hPa | 0.76 mm | - | 485 W/m² | - |
| 1777760034 | 24.44° C | 46% | 1013.9 hPa | 0.76 mm | - | 120 W/m² | - |
| 1777759737 | 24.44° C | 45% | 1013.9 hPa | 0.51 mm | - | 60 W/m² | - |
| 1777759430 | 24.44° C | 44% | 1014 hPa | 0.76 mm | - | 125 W/m² | - |
| 1777759191 | 24.44° C | 46% | 1013.9 hPa | 0.76 mm | - | 86 W/m² | - |
| 1777758895 | 24.44° C | 46% | 1013.9 hPa | 0.76 mm | - | 139 W/m² | - |
| 1777758538 | 24.44° C | 44% | 1013.9 hPa | 0.76 mm | - | 559 W/m² | - |
| 1777758234 | 24.44° C | 44% | 1014 hPa | 0.76 mm | - | 79 W/m² | - |
| 1777757936 | 24.44° C | 45% | 1014 hPa | 0.76 mm | - | 109 W/m² | - |
| 1777757633 | 24.44° C | 45% | 1014 hPa | 0.76 mm | - | 617 W/m² | - |
| 1777757397 | 23.89° C | 43% | 1014 hPa | 0.76 mm | - | 654 W/m² | - |
| 1777757028 | 23.89° C | 44% | 1014 hPa | 0.76 mm | - | 390 W/m² | - |
| 1777756730 | 24.44° C | 44% | 1013.9 hPa | 0.76 mm | - | 380 W/m² | - |
| 1777756490 | 24.44° C | 45% | 1014.1 hPa | 1.02 mm | - | 49 W/m² | - |
| 1777756200 | 24.44° C | 45% | 1014.2 hPa | 1.02 mm | - | 56 W/m² | - |
| 1777755894 | 24.44° C | 45% | 1014.2 hPa | 0.76 mm | - | 51 W/m² | - |
| 1777755537 | 24.44° C | 45% | 1014.3 hPa | 1.02 mm | - | 55 W/m² | - |
| 1777755235 | 24.44° C | 45% | 1014.3 hPa | 1.02 mm | - | 58 W/m² | - |
| 1777754935 | 24.44° C | 45% | 1014.2 hPa | 0.76 mm | - | 218 W/m² | - |
| 1777754633 | 24.44° C | 45% | 1014.3 hPa | 0.76 mm | - | 65 W/m² | - |
| 1777754334 | 24.44° C | 46% | 1014.3 hPa | 1.02 mm | - | 164 W/m² | - |
* Rain latest hour (hover to see other rain measurements)
** Current wind speed in m/s (hover to see current wind gust speed)